Regional Weather Roundup
Issued by NWS

Home | Current Version | Previous Version | Graphics & Text | Print | Product List | Glossary On
Versions: 1 2 3 4 5 6 7 8 9 10 11 12 13 14 15 16 17 18 19 20 21 22 23 24 25 26 27 28 29 30 31 32 33 34 35 36 37 38 39 40 41 42 43 44 45 46 47 48 49 50
000
ASUS43 KBIS 292310
RWRND

NORTH DAKOTA REGIONAL WEATHER ROUNDUP
NATIONAL WEATHER SERVICE BISMARCK ND
600 PM CDT WED MAR 29 2017

NOTE: "FAIR" INDICATES FEW OR NO CLOUDS BELOW 12,000 FEET WITH NO
SIGNIFICANT WEATHER AND/OR OBSTRUCTIONS TO VISIBILITY.


NDZ001>003-009>011-017-300000-
NORTHWEST NORTH DAKOTA

CITY           SKY/WX    TMP DP  RH WIND       PRES   REMARKS
WILLISTON      FAIR      62  28  27 W13       29.87F
MINOT          CLOUDY    52  44  74 NW15      29.89S
MINOT AFB      LGT RAIN  48  45  89 N6        29.88F
$$

NDZ018>021-031>035-040>046-300000-
SOUTHWEST NORTH DAKOTA

CITY           SKY/WX    TMP DP  RH WIND       PRES   REMARKS
BISMARCK       CLOUDY    63  37  38 S12       29.94F
DICKINSON      PTSUNNY   62  25  24 W17       29.87F
GARRISON         N/A     53  38  56 S5        29.89F
HETTINGER ARPT PTSUNNY   61  33  35 SE8       29.92F
$$

NDZ004>008-012>016-024-026-027-054-300000-
NORTHEAST NORTH DAKOTA

CITY           SKY/WX    TMP DP  RH WIND       PRES   REMARKS
GRAND FORKS    MOSUNNY   61  44  53 S13       30.01F
GRND FRKS AFB  MOSUNNY   59  42  53 S13       30.00F
DEVILS LAKE    CLOUDY    56  39  53 SW10      29.97F
$$

NDZ022-023-025-028>030-036>039-047>053-300000-
SOUTHEAST NORTH DAKOTA

CITY           SKY/WX    TMP DP  RH WIND       PRES   REMARKS
FARGO          SUNNY     59  39  47 SE14      30.04F
JAMESTOWN      FAIR      60  31  33 S13       29.99S
$$





USA.gov is the U.S. government's official web portal to all federal, state and local government web resources and services.